Time,B instrument,Bx,By,Bz,sigma B,Ion instrument,Status,Tp_par,Tp_perp,carrot,r_sun,clat,clong,earth_he_angle,n_p,vp_x,vp_y,vp_z,vth_p_par,vth_p_perp
1980-01-30 00:33:16,-1,nan,nan,nan,nan,1,4,nan,nan,1691,0.93538046,1.9682035,214.11597,290.74097,nan,nan,nan,nan,nan,nan
1980-01-30 00:34:37,1,0.34,-1.66,3.44,0.362215,1,1,25348.8,19616.7,1691,0.93538326,1.9681377,214.104,290.74072,6.57439,335.047,10.2983,14.9362,20.4567,17.9958
1980-01-30 00:35:41,1,-0.0833333,-1.71667,3.13333,0.623164,1,1,20022.0,18654.3,1691,0.93536174,2.0242238,214.01849,290.66302,6.29459,334.242,14.8679,12.3043,18.1807,17.5488
1980-01-30 00:35:58,1,0.116667,-1.5,3.33333,0.535672,1,1,23538.9,19140.7,1691,0.93538606,1.9680729,214.09229,290.74072,5.80586,335.133,11.5554,12.1429,19.7129,17.7761
1980-01-30 00:37:03,1,0.25,-1.45,3.2,0.380789,1,1,16411.2,16847.7,1691,0.9353916,1.9679432,214.08008,290.74023,5.98362,335.285,22.5181,12.3207,16.4599,16.6774
1980-01-30 00:38:24,1,0.357143,-1.7,3.6,0.266497,1,1,18450.1,18731.6,1691,0.93539441,1.9678783,214.06836,290.74023,7.00026,335.26,15.6699,12.3795,17.4525,17.5851
1980-01-30 00:39:45,1,0.666667,-1.73333,3.33333,0.270801,1,1,19042.7,16111.2,1691,0.93539721,1.9678135,214.0564,290.73999,5.90392,334.78,21.4251,12.9845,17.7305,16.3088
1980-01-30 00:41:06,1,0.466667,-1.78333,3.6,0.153659,1,1,17711.3,15782.4,1691,0.93540281,1.9676828,214.04443,290.73975,7.75099,335.345,16.0747,12.3821,17.0995,16.1415
1980-01-30 00:42:27,1,0.3,-1.56667,3.66667,0.38873,1,1,19516.6,16035.9,1691,0.93540561,1.967618,214.03247,290.7395,6.02241,335.072,23.2518,11.0093,17.9498,16.2706
1980-01-30 00:43:48,1,0.4,-1.8,3.53333,0.149071,1,1,15901.5,15206.1,1691,0.93540835,1.9675531,214.02051,290.73926,7.98919,334.753,15.8927,12.76,16.2023,15.8441
1980-01-30 00:45:09,1,0.871429,-1.62857,3.71429,0.320077,1,1,21174.1,18293.7,1691,0.93541396,1.9674234,214.00464,290.73901,5.99905,332.568,21.8746,10.8404,18.6965,17.3783
1980-01-30 00:46:30,1,1.56667,-1.3,4.16667,0.35746,1,1,23762.9,17840.2,1691,0.93541676,1.9673586,213.99268,290.73877,6.88535,329.252,15.2792,10.7901,19.8065,17.1616
1980-01-30 00:47:51,1,0.95,-1.6,3.86667,0.260875,1,1,22646.2,23833.7,1691,0.93541956,1.9672928,213.98071,290.73853,6.47784,331.007,18.5734,13.5557,19.3355,19.836
1980-01-30 00:49:12,-1,nan,nan,nan,nan,1,4,nan,nan,1691,0.9354251,1.9671631,213.96875,290.73828,nan,nan,nan,nan,nan,nan
1980-01-30 00:50:33,1,-0.333333,-0.833333,4.06667,0.408248,1,1,22061.3,21177.2,1691,0.9354279,1.9670982,213.95679,290.73804,5.77978,337.073,19.7105,9.7896,19.0842,18.6979
1980-01-30 00:51:54,-1,nan,nan,nan,nan,1,4,nan,nan,1691,0.93543071,1.9670334,213.94507,290.73804,nan,nan,nan,nan,nan,nan
1980-01-30 00:53:15,1,-0.857143,-1.11429,4.0,0.144279,1,1,24295.8,22320.8,1691,0.93543631,1.9669037,213.92896,290.73755,5.84198,338.02,17.2378,8.48023,20.0273,19.1961
1980-01-30 00:54:36,-1,nan,nan,nan,nan,1,4,nan,nan,1691,0.93543911,1.9668379,213.91724,290.73755,nan,nan,nan,nan,nan,nan
1980-01-30 00:55:57,1,-0.15,-0.883333,3.66667,0.499444,1,1,21828.7,19877.3,1691,0.93544185,1.966773,213.90527,290.7373,5.61516,336.337,18.3683,11.3199,18.9833,18.1149
1980-01-30 00:57:18,1,-0.333333,-0.833333,4.13333,0.58023,1,1,19682.8,11887.0,1691,0.93544745,1.9666433,213.89331,290.73706,9.19615,336.74,15.4378,10.8451,18.0261,14.0086
1980-01-30 00:58:39,1,-0.116667,-0.65,4.26667,0.222361,1,1,22252.2,19125.8,1691,0.93545026,1.9665785,213.88135,290.73682,6.16338,336.739,10.7463,10.3701,19.1666,17.7692
1980-01-30 01:00:00,1,0.0,-0.9,4.06667,0.268742,1,1,24175.1,20798.0,1691,0.93545586,1.9664488,213.86938,290.73657,6.86873,336.81,16.8038,8.5645,19.9775,18.5297
1980-01-30 01:01:21,1,-0.366667,-0.766667,3.93333,0.5,1,1,25370.9,22584.7,1691,0.9354586,1.966383,213.85352,290.73633,6.01595,334.473,11.6611,10.9356,20.4657,19.3092
1980-01-30 01:02:42,1,0.283333,-0.916667,4.0,0.214735,1,1,21571.1,18721.1,1691,0.9354614,1.9663181,213.84155,290.73608,6.5364,331.537,14.0212,12.1068,18.871,17.5802
1980-01-30 01:04:03,1,0.35,-1.08333,3.66667,0.377859,1,1,20324.7,17067.3,1691,0.935467,1.9661884,213.82959,290.73584,6.16472,333.152,23.2222,12.537,18.3176,16.7857
1980-01-30 01:05:24,1,1.98333,-1.26667,3.1,0.311359,1,1,13511.3,14509.5,1691,0.93546975,1.9661236,213.81763,290.7356,7.20606,326.98,15.8022,14.2389,14.935,15.4769
1980-01-30 01:06:45,1,2.25,-1.23333,3.1,0.254406,1,1,13259.6,15789.9,1691,0.93547255,1.9660587,213.80566,290.73535,6.03073,331.195,21.6148,12.9771,14.7953,16.1453
1980-01-30 01:08:06,1,2.3,-1.03333,3.36667,0.301846,1,1,16079.2,17510.7,1691,0.93547815,1.9659281,213.7937,290.73511,6.23475,329.778,15.371,12.905,16.2926,17.0024
1980-01-30 01:09:27,1,2.4,-0.9,3.3,0.3,1,1,14356.2,17939.3,1691,0.93548089,1.9658632,213.77783,290.73486,6.08141,332.056,18.2313,12.3502,15.3949,17.2092
1980-01-30 01:10:48,1,2.36667,-1.0,3.1,0.268742,1,1,14643.5,15525.5,1691,0.93548369,1.9657984,213.76611,290.73486,6.70321,330.387,14.8348,12.6255,15.5482,16.0096
1980-01-30 01:12:09,1,2.3,-1.03333,3.16667,0.278887,1,1,13611.3,17297.7,1691,0.9354893,1.9656687,213.75391,290.73438,5.82624,331.771,18.9017,12.1178,14.9902,16.8986
1980-01-30 01:13:30,1,2.23333,-1.06667,3.43333,0.223607,1,1,13604.7,16029.2,1691,0.93549204,1.9656029,213.74219,290.73438,7.41028,330.067,15.1787,12.1678,14.9866,16.2672
1980-01-30 01:14:51,1,1.98333,-1.23333,3.3,0.283333,1,1,11758.4,14959.2,1691,0.93549484,1.965538,213.73022,290.73413,6.50239,331.207,22.1253,13.4262,13.9326,15.7149
1980-01-30 01:16:12,1,2.33333,-1.1,3.5,0.268742,1,1,14923.7,15513.0,1691,0.93550044,1.9654083,213.71826,290.73389,6.83973,330.13,15.1959,12.3725,15.6963,16.0031
1980-01-30 01:17:33,1,2.16667,-1.2,3.43333,0.301846,1,1,13426.7,15612.8,1691,0.93550324,1.9653435,213.7063,290.73364,6.14901,331.189,20.3754,12.8171,14.8882,16.0545
1980-01-30 01:18:54,1,2.26667,-1.13333,3.43333,0.258199,1,1,12365.6,13590.6,1691,0.93550599,1.9652786,213.69043,290.7334,7.8354,330.449,14.7823,12.9854,14.2878,14.9788
1980-01-30 01:20:15,1,2.3,-1.03333,3.5,0.235702,1,1,12925.1,16170.7,1691,0.93551159,1.965148,213.67847,290.73315,5.86533,332.458,19.3301,12.136,14.6075,16.3389
1980-01-30 01:21:36,-1,nan,nan,nan,nan,1,4,nan,nan,1691,0.93551439,1.9650831,213.6665,290.73291,nan,nan,nan,nan,nan,nan
1980-01-30 01:22:57,1,2.2,-1.0,3.43333,0.149071,1,1,14657.0,16313.6,1691,0.93551713,1.9650183,213.65479,290.73291,5.77056,331.882,17.371,11.9533,15.5554,16.4109
1980-01-30 01:24:18,1,2.36667,-1.0,3.5,0.268742,1,1,13303.2,13621.0,1691,0.93552274,1.9648886,213.64258,290.73242,7.42926,330.136,14.8309,11.9162,14.8196,14.9956
1980-01-30 01:25:39,1,2.2,-1.0,3.5,4.44089e-16,1,1,13971.1,14958.3,1691,0.93552554,1.9648228,213.63062,290.73218,6.17413,331.35,20.9814,11.6762,15.187,15.7145
1980-01-30 01:27:00,1,2.3,-1.03333,3.56667,0.278887,1,1,13198.4,14538.4,1691,0.93553108,1.9646931,213.61475,290.73193,7.13882,328.852,14.8084,11.4063,14.7611,15.4923
1980-01-30 01:28:21,1,2.26667,-0.966667,3.5,0.166667,1,1,15878.2,18138.7,1691,0.93553388,1.9646282,213.60278,290.73169,5.8656,331.73,15.9147,11.8222,16.1904,17.3046
1980-01-30 01:29:42,1,2.0,-1.13333,3.5,0.169967,1,1,14961.8,15388.6,1691,0.93553668,1.9645634,213.59106,290.73169,7.64229,331.106,15.1882,12.5329,15.7163,15.9389
1980-01-30 01:31:03,1,1.63333,-1.26667,3.5,0.24037,1,1,17937.3,19884.1,1691,0.93554223,1.9644327,213.57886,290.7312,6.28335,332.084,11.2196,11.4743,17.2082,18.118
1980-01-30 01:32:24,1,1.88333,-1.18333,3.51667,0.225462,1,1,14499.9,15302.7,1691,0.93554503,1.9643679,213.56714,290.7312,7.55857,329.251,14.744,12.6515,15.4718,15.8943
1980-01-30 01:33:45,1,0.95,-1.58333,2.93333,0.257121,1,1,13651.0,18175.7,1691,0.93554783,1.964303,213.55518,290.73096,6.35608,330.684,7.23974,13.502,15.0121,17.3222
1980-01-30 01:35:06,1,1.23333,-1.43333,3.2,0.210819,1,1,14613.2,16786.0,1691,0.93555337,1.9641733,213.53931,290.73071,7.59632,329.176,14.8709,12.9058,15.5321,16.6468
1980-01-30 01:36:27,1,1.51667,-1.36667,3.58333,0.279881,1,1,23281.9,23065.1,1691,0.93555617,1.9641085,213.52734,290.73047,5.99421,326.147,11.9899,9.04503,19.605,19.5135
1980-01-30 01:37:48,1,2.01667,-1.13333,4.43333,0.269258,1,1,21660.4,16356.2,1691,0.93555897,1.9640427,213.51538,290.73022,6.6546,326.588,16.6496,11.125,18.91,16.4323
1980-01-30 01:39:09,1,1.83333,-1.21667,3.98333,0.212132,1,1,22272.4,22945.4,1691,0.93556452,1.963913,213.50342,290.72998,6.27849,325.483,19.3742,9.00906,19.1753,19.4628
1980-01-30 01:40:30,1,1.95,-1.16667,3.96667,0.200693,1,1,23850.9,16114.8,1691,0.93556732,1.9638481,213.49146,290.72974,6.8341,327.064,16.361,8.56406,19.8432,16.3106
1980-01-30 01:41:51,1,2.15,-1.03333,3.9,0.134371,1,1,23118.3,22537.9,1691,0.93557012,1.9637833,213.47974,290.72974,6.05464,326.495,17.9966,8.10932,19.536,19.2892
1980-01-30 01:43:12,1,2.0,-1.13333,4.1,0.262467,1,1,23445.3,17155.2,1691,0.93557566,1.9636526,213.46362,290.72925,6.6457,327.024,16.6526,8.94898,19.6737,16.8289
1980-01-30 01:44:33,1,1.88333,-1.18333,4.18333,0.301386,1,1,24966.9,21512.1,1691,0.93557847,1.9635878,213.45166,290.729,5.86136,325.597,14.239,8.51619,20.3021,18.8451
1980-01-30 01:45:54,1,2.2,-1.0,4.23333,0.149071,1,1,19920.7,17380.0,1691,0.93558127,1.9635229,213.43994,290.729,6.80619,325.903,15.2376,9.54337,18.1347,16.9388
1980-01-30 01:47:15,1,2.6,-0.8,4.03333,0.188562,1,1,20949.6,20637.7,1691,0.93558687,1.9633932,213.42773,290.72852,6.58924,324.738,16.1178,7.58408,18.5971,18.4582
1980-01-30 01:48:36,1,2.03333,-0.933333,3.98333,0.390512,1,1,19843.4,17416.6,1691,0.93558961,1.9633284,213.41602,290.72852,7.25375,324.846,13.888,9.48277,18.0995,16.9566
1980-01-30 03:00:07,-1,nan,nan,nan,nan,1,3,nan,nan,1691,0.93579006,1.9586496,212.74756,290.71631,nan,323.011,6.74827,5.27692,nan,nan
1980-01-30 03:01:28,1,-1.04,-0.82,3.12,0.299333,1,1,21559.5,17227.3,1691,0.9357928,1.9585838,212.7356,290.71606,5.83586,329.851,10.9527,7.38078,18.8659,16.8642
1980-01-30 03:02:49,1,-1.01667,-1.43333,3.46667,0.30957,1,1,23342.3,22099.6,1691,0.93579561,1.958519,212.72363,290.71582,5.66359,328.547,7.65385,7.31479,19.6304,19.1007
1980-01-30 03:04:10,1,-0.666667,-1.41667,3.13333,0.431084,1,1,23196.8,19294.8,1691,0.93580115,1.9583893,212.71167,290.71558,5.56815,328.962,9.43038,5.75063,19.5692,17.8475
1980-01-30 03:05:33,1,-1.06667,-1.31667,3.4,0.321887,1,1,22605.4,21635.4,1691,0.93580395,1.9583244,212.69971,290.71533,5.57163,328.336,7.46784,6.7937,19.3181,18.8991
1980-01-30 03:06:54,1,-1.03333,-0.633333,3.13333,0.223607,1,1,22742.5,17294.8,1691,0.93580669,1.9582596,212.68774,290.71509,6.31683,332.237,12.5275,4.49911,19.3766,16.8973
1980-01-30 03:08:15,1,-1.2,-0.633333,2.8,0.298142,1,1,23010.5,26462.4,1691,0.93581223,1.9581299,212.67188,290.71484,5.6707,332.366,11.0454,7.33713,19.4904,20.9013
1980-01-30 03:09:36,1,-1.15,-0.7,2.93333,0.30777,1,1,28247.4,21458.6,1691,0.93581504,1.9580641,212.65991,290.7146,5.76726,333.299,11.2326,7.62824,21.5947,18.8217
1980-01-30 03:10:57,1,-1.03333,-0.95,3.73333,0.346811,1,1,25937.5,28377.1,1691,0.93581784,1.9579992,212.64819,290.7146,6.07779,333.184,9.89021,8.91278,20.6929,21.6442
1980-01-30 03:12:18,1,-1.26667,-1.23333,3.26667,0.223607,1,1,25217.2,19157.4,1691,0.93582338,1.9578695,212.63599,290.71411,5.9408,332.339,10.6474,7.8811,20.4036,17.7839
1980-01-30 03:13:39,1,-1.55,-0.95,3.6,0.158114,1,1,29007.7,29448.6,1691,0.93582612,1.9578047,212.62427,290.71411,6.22596,333.199,8.22758,10.23,21.8834,22.0491
1980-01-30 03:15:00,1,-1.3,-1.18333,3.46667,0.283333,1,1,26267.3,22011.2,1691,0.93583167,1.957675,212.61206,290.71362,6.20739,331.733,11.8152,9.02351,20.8241,19.0625
1980-01-30 03:16:21,1,-1.38333,-1.16667,3.66667,0.292973,1,1,29904.0,27934.7,1691,0.93583447,1.9576101,212.59644,290.71362,6.10513,332.704,8.39526,10.955,22.2189,21.4748
1980-01-30 03:17:42,1,-1.5,-1.04,4.24,0.323728,1,1,14054.0,16968.1,1691,0.93583727,1.9575453,212.58447,290.71338,5.57779,327.342,10.8363,14.3873,15.232,16.7369
1980-01-30 03:21:45,1,-1.6,-1.05,4.13333,0.291071,1,1,25205.0,21984.6,1691,0.93582439,2.0138144,212.47095,290.63501,5.68155,333.356,5.53905,7.73206,20.3987,19.051
1980-01-30 03:23:06,1,-1.68333,-1.08333,3.93333,0.441588,1,1,23411.6,20588.0,1691,0.93582809,2.013732,212.45898,290.63477,5.10038,332.129,9.43715,7.65281,19.6595,18.4359
1980-01-30 03:23:58,1,-1.96667,-0.916667,4.26667,0.330404,1,1,21726.6,19236.0,1691,0.9358539,1.9571552,212.52881,290.7124,5.25933,330.383,9.81941,10.5898,18.9388,17.8203
1980-01-30 03:24:27,1,-1.74,-0.94,4.08,0.215407,1,1,19376.7,24278.0,1691,0.9358567,1.9570904,212.52466,290.71216,5.19479,328.646,3.55829,11.6922,17.8853,20.02
1980-01-30 03:25:48,1,-1.7,-1.0,3.84,0.195959,1,1,21463.2,17649.7,1691,0.9358595,1.9570255,212.50879,290.71191,4.76417,328.563,8.26554,10.2129,18.8237,17.0697
1980-01-30 03:27:09,1,-1.38333,-1.15,3.6,0.259272,1,1,20314.4,20496.1,1691,0.93586504,1.9568949,212.49683,290.71167,5.33187,330.493,3.23068,11.954,18.313,18.3947
1980-01-30 03:28:30,1,-1.85,0.15,4.41667,0.457954,1,1,24320.3,24048.1,1691,0.93586779,1.95683,212.48486,290.71143,4.54203,331.338,4.52253,8.6452,20.0374,19.925
1980-01-30 03:29:51,1,-1.9,-0.466667,4.13333,0.323179,1,1,22773.6,19905.3,1691,0.93587059,1.9567652,212.47314,290.71143,5.30035,333.393,2.51854,10.3856,19.3898,18.1277
1980-01-30 03:31:12,1,-1.88,0.18,4.18,0.277128,1,1,23148.8,25242.4,1691,0.93587613,1.9566355,212.46094,290.71094,4.89162,332.775,2.9232,8.39031,19.5489,20.4138
1980-01-30 03:32:33,1,-1.86667,0.5,4.25,0.348409,1,1,27428.6,20172.8,1691,0.93587893,1.9565706,212.44922,290.71094,5.42323,332.623,1.60206,10.1123,21.2794,18.2491
1980-01-30 03:33:54,1,-1.81667,0.533333,4.18333,0.318852,1,1,22784.0,22287.0,1691,0.93588167,1.9565058,212.43335,290.71069,4.6296,329.545,3.73154,9.2989,19.3943,19.1815
1980-01-30 03:35:15,1,-2.26667,0.466667,4.1,0.210819,1,1,27919.7,15529.7,1691,0.93588728,1.9563751,212.42139,290.71045,6.47675,329.202,1.07254,11.5406,21.4691,16.0118
1980-01-30 03:36:36,1,-2.2,0.5,4.03333,0.268742,1,1,26002.8,24799.5,1691,0.93589002,1.9563103,212.40942,290.71021,4.97293,329.034,-0.606794,9.53699,20.719,20.2339
1980-01-30 03:37:57,1,-2.46667,0.316667,3.9,0.289156,1,1,24623.1,17614.9,1691,0.93589282,1.9562454,212.39746,290.70996,5.94029,329.581,0.736277,11.6118,20.1618,17.0529
1980-01-30 03:39:18,1,-2.42,0.16,3.86,0.332265,1,1,30055.0,29602.8,1691,0.93589836,1.9561157,212.3855,290.70972,4.66321,328.189,-0.398665,9.32794,22.2749,22.1067
1980-01-30 03:40:39,1,-2.51667,0.0833333,3.63333,0.302765,1,1,25912.1,17958.6,1691,0.93590117,1.9560509,212.37354,290.70947,5.67433,329.366,1.16055,12.4108,20.6828,17.2185
1980-01-30 03:42:00,1,-2.36667,0.233333,3.36667,0.294392,1,1,30279.9,26181.6,1691,0.93590671,1.9559212,212.35767,290.70923,4.86174,328.796,2.33355,9.98863,22.3581,20.7901
1980-01-30 03:43:21,1,-2.46667,-0.0333333,3.5,0.290593,1,1,20779.5,18413.9,1691,0.93590945,1.9558563,212.3457,290.70898,5.42624,331.603,1.22536,12.5856,18.5215,17.4354
1980-01-30 03:44:42,1,-2.13333,0.316667,2.86667,0.275379,1,1,22782.1,22348.3,1691,0.93591225,1.9557905,212.33374,290.70874,4.63178,326.706,1.48824,14.5406,19.3934,19.2079
1980-01-30 03:46:03,1,-2.36667,-0.0666667,3.21667,0.33541,1,1,22264.3,16460.2,1691,0.93591779,1.9556608,212.32178,290.7085,5.42721,331.68,1.36519,11.6827,19.1718,16.4845
1980-01-30 03:47:24,1,-2.28,0.06,3.3,0.178885,1,1,20083.8,20004.6,1691,0.9359206,1.955596,212.30981,290.70825,4.43845,327.879,5.69976,12.0735,18.2088,18.1729
1980-01-30 03:48:45,1,-2.25,-0.4,3.13333,0.233928,1,1,22455.3,18727.0,1691,0.93592334,1.9555311,212.2981,290.70825,5.03713,331.122,2.65105,11.1397,19.2538,17.583
1980-01-30 03:50:06,1,-2.21667,-0.3,3.08333,0.315348,1,1,13979.3,13606.9,1691,0.93592894,1.9554014,212.28589,290.70776,5.78953,329.784,9.99841,13.3296,15.1915,14.9878
1980-01-30 03:51:27,1,-2.06,-0.2,2.96,0.291204,1,1,20650.5,20118.8,1691,0.93593168,1.9553366,212.27026,290.70776,5.24076,328.224,3.68938,10.9619,18.4639,18.2247
1980-01-30 03:52:48,1,-2.32,0.12,2.42,0.277128,1,1,34731.2,26330.6,1691,0.93593448,1.9552708,212.2583,290.70752,4.26205,332.546,4.51106,13.5077,23.9452,20.8492
1980-01-30 03:54:09,1,-2.26667,0.383333,2.1,0.252212,1,1,19924.8,21268.0,1691,0.93594003,1.9551411,212.24634,290.70728,5.10033,336.365,3.4904,15.9936,18.1366,18.7379
1980-01-30 03:55:30,1,-2.0,-0.1,2.5,0.305505,1,1,32411.1,24373.6,1691,0.93594283,1.9550762,212.23438,290.70703,4.81584,332.86,5.43525,17.3844,23.1315,20.0594
1980-01-30 03:56:51,1,-1.74,0.5,1.7,0.332265,1,1,17880.8,22752.3,1691,0.93594557,1.9550114,212.22241,290.70679,5.37674,334.904,4.08476,15.9964,17.1811,19.3808
1980-01-30 03:58:12,1,-1.75,0.466667,2.01667,0.269774,1,1,29125.2,24103.4,1691,0.93595111,1.9548817,212.21045,290.70654,5.46769,337.432,8.40134,13.9167,21.9277,19.9479
1980-01-30 03:59:33,1,-1.43333,-0.0333333,2.4,0.194365,1,1,22815.7,26215.8,1691,0.93595392,1.9548168,212.19458,290.7063,6.29991,335.557,9.21276,7.38848,19.4077,20.8037
1980-01-30 04:00:54,1,-1.7,-0.1,2.46667,0.149071,1,1,21740.4,22366.8,1691,0.93595672,1.954752,212.18286,290.7063,5.16597,332.933,8.23569,13.0363,18.9449,19.2159
1980-01-30 04:02:15,1,-1.8,-0.366667,2.46667,0.323179,1,1,21152.2,18371.2,1691,0.93596226,1.9546213,212.17065,290.70581,5.88735,335.149,5.26505,13.6754,18.6868,17.4151
1980-01-30 04:03:36,1,-2.0,-0.6,2.46667,0.262467,1,1,28102.2,25443.1,1691,0.935965,1.9545565,212.15869,290.70557,4.79725,331.006,7.973,12.9032,21.5391,20.4948
1980-01-30 04:04:57,1,-2.2,-1.0,2.93333,0.292499,1,1,25784.1,23692.8,1691,0.9359678,1.9544916,212.14697,290.70557,5.03584,330.845,3.16179,15.001,20.6317,19.7773
1980-01-30 04:06:18,1,-1.78333,-0.75,2.73333,0.588312,1,1,31834.3,25281.7,1691,0.93597335,1.9543619,212.13477,290.70508,5.48325,333.636,2.50718,22.017,22.9248,20.4297
1980-01-30 04:07:39,1,-1.61667,-0.433333,2.0,0.153659,1,1,20631.4,23538.2,1691,0.93597609,1.9542971,212.11914,290.70508,5.315,336.054,8.77294,11.0743,18.4554,19.7126
1980-01-30 04:09:00,-1,nan,nan,nan,nan,1,4,nan,nan,1691,0.93598163,1.9541674,212.10693,290.70459,nan,nan,nan,nan,nan,nan
1980-01-30 04:10:19,1,-1.65,-0.966667,2.4,0.134371,1,1,19373.9,19246.1,1691,0.93598443,1.9541016,212.09521,290.70459,5.10532,335.457,6.53018,11.8352,17.8841,17.825
1980-01-30 04:11:40,1,-1.6,-0.966667,2.66667,0.24037,1,1,30694.4,24336.3,1691,0.93598717,1.9540367,212.08325,290.70435,5.83019,336.529,11.7514,10.0287,22.5106,20.044
1980-01-30 04:13:01,1,-1.8,-0.85,2.93333,0.357849,1,1,21835.0,19487.9,1691,0.93599272,1.953907,212.07104,290.70386,5.38115,336.514,7.3782,10.5634,18.986,17.9366
1980-01-30 04:14:22,1,-1.6,-0.966667,2.73333,0.210819,1,1,28173.6,22454.1,1691,0.93599552,1.9538422,212.05933,290.70386,5.51193,335.035,14.5091,10.646,21.5665,19.2533
1980-01-30 04:15:45,1,-1.7,-1.23333,3.26667,0.301846,1,1,23434.3,16600.8,1691,0.93599826,1.9537773,212.04346,290.70361,5.55718,335.875,6.18469,8.57571,19.6691,16.5548
1980-01-30 04:17:06,1,-0.266667,-0.683333,1.2,0.424591,1,1,19760.8,20175.5,1691,0.9360038,1.9536476,212.03149,290.70337,5.43759,331.834,11.6528,18.8451,18.0618,18.2503
1980-01-30 04:18:27,1,-1.0,-1.06667,1.53333,0.226078,1,1,17207.0,18553.0,1691,0.93600661,1.9535818,212.01953,290.70313,5.46919,333.061,8.02404,16.9229,16.8543,17.5011
1980-01-30 04:19:48,1,-1.13333,-1.06667,1.6,0.233333,1,1,30590.4,25372.8,1691,0.93600935,1.953517,212.00757,290.70288,5.43611,333.743,11.2985,14.9866,22.4725,20.4664
1980-01-30 04:21:09,1,-0.966667,-1.53333,1.6,0.210819,1,1,23166.6,20346.9,1691,0.93601489,1.9533873,211.99561,290.70264,5.43159,332.672,10.7822,17.4566,19.5564,18.3277
1980-01-30 04:22:30,1,-0.5,-2.01667,2.4,0.318416,1,1,23296.8,20416.4,1691,0.93601769,1.9533224,211.98364,290.70239,5.24877,331.834,16.0875,11.8216,19.6113,18.3589
1980-01-30 04:23:51,1,0.0666667,-1.95,2.46667,0.632675,1,1,28896.6,23216.0,1691,0.93602043,1.9532576,211.97168,290.70215,5.69647,332.629,14.3947,11.9612,21.8414,19.5773
1980-01-30 04:25:12,1,-1.32,-1.16,2.0,0.252982,1,1,31314.9,25320.7,1691,0.93602598,1.9531279,211.95581,290.7019,5.68093,333.604,13.5668,11.3976,22.737,20.4454
1980-01-30 04:26:33,1,-1.15,-1.4,2.06667,0.254406,1,1,30822.5,17988.0,1691,0.93602878,1.9530621,211.94385,290.70166,4.77581,334.045,17.2537,9.67895,22.5576,17.2325
1980-01-30 04:27:54,1,-1.33333,-1.26667,2.13333,0.382971,1,1,22192.7,20945.3,1691,0.93603152,1.9529972,211.93213,290.70166,6.06502,333.176,15.3378,9.01714,19.1409,18.5952
1980-01-30 04:29:15,1,-1.46667,-0.833333,1.93333,0.223607,1,1,21333.4,18483.2,1691,0.93603706,1.9528675,211.91992,290.70117,5.49408,334.813,8.20827,12.8014,18.7667,17.4681
1980-01-30 04:30:36,1,-1.53333,-0.6,2.0,0.169967,1,1,30551.9,22081.6,1691,0.93603987,1.9528027,211.9082,290.70117,5.76763,335.028,12.587,9.69188,22.4583,19.093
1980-01-30 04:31:57,1,-1.68333,-0.666667,2.06667,0.304138,1,1,19969.7,20560.4,1691,0.93604267,1.9527378,211.89624,290.70093,5.4857,336.212,7.99081,13.8081,18.157,18.4236
1980-01-30 04:33:18,1,-1.8,-0.833333,2.73333,0.247207,1,1,27771.8,20755.3,1691,0.93604821,1.9526081,211.88013,290.70044,5.63239,335.329,14.0081,7.15412,21.4121,18.5107
1980-01-30 04:34:39,1,-1.76667,-1.03333,2.8,0.166667,1,1,20779.0,18481.8,1691,0.93605095,1.9525433,211.86841,290.70044,4.82316,334.511,8.94825,9.72858,18.5212,17.4675
1980-01-30 04:36:00,1,-1.9,-0.966667,2.66667,0.323179,1,1,26340.5,21099.4,1691,0.93605649,1.9524126,211.8562,290.69995,5.2523,335.175,14.4752,6.49117,20.853,18.6635
1980-01-30 04:37:21,1,-2.06667,-1.1,2.53333,0.301846,1,1,21303.9,18194.8,1691,0.9360593,1.9523478,211.84448,290.69995,4.59816,334.056,9.02342,8.53968,18.7537,17.3313
1980-01-30 04:38:42,1,-2.35,-0.983333,2.73333,0.299073,1,1,27155.4,20129.1,1691,0.93606204,1.9522829,211.83252,290.69971,5.26993,333.356,13.5999,7.00061,21.1732,18.2293
1980-01-30 04:40:03,1,-2.36,-0.84,2.56,0.243311,1,1,20992.5,21952.7,1691,0.93606758,1.9521532,211.82056,290.69946,4.79231,335.458,10.2677,7.87237,18.6161,19.0372
1980-01-30 04:41:24,1,-2.21667,-0.65,2.8,0.252763,1,1,28564.6,19872.7,1691,0.93607038,1.9520884,211.80469,290.69922,5.37624,334.266,13.4499,5.95525,21.7156,18.1128
1980-01-30 04:42:45,1,-2.35,-0.616667,2.6,0.277889,1,1,17437.2,18984.0,1691,0.93607312,1.9520235,211.79272,290.69897,4.77297,336.132,8.79364,10.2936,16.9667,17.7032
1980-01-30 04:44:06,1,-2.38,-0.96,2.56,0.313688,1,1,25879.8,19760.8,1691,0.93607867,1.9518929,211.78076,290.69873,5.11244,331.019,12.6472,6.82076,20.6699,18.0618
1980-01-30 04:45:27,1,-1.8,-0.666667,2.26667,0.380058,1,1,17910.7,20946.2,1691,0.93608147,1.951828,211.7688,290.69849,4.68983,335.216,18.2406,7.46953,17.1955,18.5956
1980-01-30 04:46:48,1,-1.71667,-0.416667,2.33333,0.313581,1,1,31365.4,21480.1,1691,0.93608421,1.9517632,211.75684,290.69824,5.57919,336.198,12.9511,8.23133,22.7553,18.8311
1980-01-30 04:48:09,1,-1.63333,-0.4,2.33333,0.307318,1,1,20737.3,17400.9,1691,0.93608975,1.9516335,211.74487,290.698,5.57462,335.56,6.42672,12.2008,18.5027,16.949
1980-01-30 04:49:30,1,-1.55,-0.433333,2.33333,0.224227,1,1,30130.7,24685.9,1691,0.93609256,1.9515686,211.729,290.69775,5.64564,333.03,13.6908,12.486,22.3029,20.1875
1980-01-30 04:50:51,1,-1.56667,-0.35,2.13333,0.387657,1,1,20067.5,16515.1,1691,0.9360953,1.9515038,211.71729,290.69775,5.5953,333.123,6.80952,13.1079,18.2014,16.512
1980-01-30 04:52:12,1,-2.02,-0.44,2.72,0.256125,1,1,28399.6,19256.5,1691,0.93610084,1.9513731,211.70508,290.69727,4.82012,331.667,14.1728,6.54274,21.6528,17.8298
1980-01-30 04:53:33,1,-2.11667,-0.516667,2.46667,0.308221,1,1,21297.9,14747.7,1691,0.93610364,1.9513083,211.69312,290.69702,5.20163,334.043,6.39748,9.69347,18.7511,15.6034
1980-01-30 04:54:54,1,-2.2,-0.35,2.66667,0.247768,1,1,23535.1,17550.2,1691,0.93610638,1.9512434,211.6814,290.69702,5.14283,330.616,13.7818,7.32173,19.7113,17.0215
1980-01-30 04:56:15,1,-2.18333,-0.416667,2.86667,0.267706,1,1,19397.0,16477.9,1691,0.93611193,1.9511137,211.66919,290.69653,4.8139,333.041,7.58324,9.06938,17.8947,16.4933
1980-01-30 04:57:36,1,-2.22,-0.38,2.72,0.238328,1,1,26336.6,20300.2,1691,0.93611473,1.9510489,211.65747,290.69653,4.99436,331.356,11.9333,7.67039,20.8515,18.3066
1980-01-30 04:58:57,1,-2.06667,-0.133333,2.23333,0.321455,1,1,20314.7,16519.8,1691,0.93611753,1.950984,211.6416,290.69629,4.96463,332.075,7.24588,10.816,18.3131,16.5143